Location: Buch
(50.1863°N, 11.0141°E)
Time: 05:14:09
(UTC+00:00)

METEOR-M - Pass Details

Date: 18 January 2020
Orbit: 816 x 820 km, 98.4° (Epoch: 25 February)

Event Time Altitude Azimuth Distance (km) Brightness Sun altitude
Rises 05:03:08 0° 12° (NNE) 3,365 7.4 -19.3°
Reaches altitude 10° 05:05:30 10° 11° (N) 2,428 6.6 -18.9°
Maximum altitude 05:10:50 70° 289° (WNW) 874 4.0 -18.1°
Drops below altitude 10° 05:16:08 10° 206° (SSW) 2,408 6.4 -17.3°
Sets 05:18:29 0° 204° (SSW) 3,336 7.2 -16.9°
